Location: Newark
(12.4436°N, 0.6167°W)
Time: 13:21:31
(UTC+00:00)

deb Explorer IX - Pass Details

Date: 12 December 2019
Orbit: 548 x 1101 km, 38.8° (Epoch: 16 January)

Event Time Altitude Azimuth Distance (km) Brightness Sun altitude
Rises 20:56:18 0° 324° (NW) 3,775 - -46.0°
Reaches altitude 10° 20:59:24 10° 336° (NNW) 2,879 - -46.8°
Maximum altitude 21:05:20 28° 32° (NNE) 1,936 - -48.1°
Drops below altitude 10° 21:11:22 10° 88° (E) 2,940 - -49.5°
Sets 21:14:33 0° 100° (E) 3,870 - -50.2°
